Retour au catalogue

STARLINK-11705

ActifCommunicationsVLEO
NORAD 63758·PAYLOAD·🇺🇸 United States

Lancé Apr 29, 2025 depuis Cape Canaveral Space Force Station

Loading…

Prochains Passages (prochaines 24 heures)

TLE

FraisSource: CelesTrak SupGP

Époque: Sep 15, 2026, 03:28 UTC

1 63758C 25089H   26258.14493056 -.00037573  00000+0 -29184-3 0  2589
2 63758  43.0006 230.4331 0001485 267.6917 324.0733 15.70856580    14

Suivez STARLINK-11705 en temps réel avec AllMySat

Download on the App Store